Location: Rochester
(43.1610°N, 77.6109°W)
Time: 11:13:11
(UTC-05:00)

OTV 5 (USA 277) - Visible Passes

Search period start: 18 February 2019 00:00
Search period end: 28 February 2019 00:00
Orbit: 342 x 346 km, 54.5° (Epoch: 17 February)

Date Brightness Start Highest point End Pass type
(mag) Time Alt. Az. Time Alt. Az. Time Alt. Az.
22 Feb ? 19:19:28 10° S 19:20:40 19° S 19:20:40 19° S visible
23 Feb ? 19:42:33 10° SW 19:44:19 34° SW 19:44:19 34° SW visible
24 Feb ? 18:31:57 10° S 18:34:21 24° SE 18:36:21 13° E visible
24 Feb ? 20:06:33 10° W 20:07:48 20° WNW 20:07:48 20° WNW visible
25 Feb ? 18:55:00 10° SW 18:57:52 86° SE 18:59:43 20° NE visible
26 Feb ? 19:18:58 10° W 19:21:36 31° NNW 19:22:58 21° NNE visible
27 Feb ? 19:43:35 10° WNW 19:45:33 16° NNW 19:46:06 16° N visible
